SCP
-0 -0 0 0 0 -0 -0 -0 -0 -0 0 -0 -0 0 -0 -0 0 -0 -0 -0 -0 -0 -0 -0 -0 -0 -0 -0 -0 -0 -0 -0 -0 -0 -0 -0 -0 -0 -0 -0 0 0 -0 -0 -0 0 -0 -0 -0
-0 -0 0 0 -0 -0 0 -0 -0 -0 -0 0 0 0 0 -0 -0 -0 -0 0 -0 -0 -0 -0 -0 -0 -0 -0 -0 0 -0 -0 -0 0 0 -0 -0 0 -0 -0 0 0 -0 0 -0 -0 -0 -0 -0
0 0 0 0 0 0 0 0 0 -0 -0 0 0 0 0 -0 -0 0 -0 -0 -0 -0 -0 -0 -0 -0 -0 -0 -0 -0 -0 -0 -0 0 0 0 0 -0 -0 -0 -0 0 0 0 0 -0 -0 -0 -0
0 0 0 0 0 0 0 0 0 -0 -0 0 0 -0 0 0 -0 -0 -0 -0 -0 -0 -0 -0 -0 -0 -0 -0 -0 -0 0 0 -0 -0 -0 -0 0 0 0 0 0 0 0 0 0 0 0 0 0
0 0 0 0 0 0 0 0 0 0 -0 -0 0 -0 -0 0 -0 -0 -0 -0 -0 -0 -0 -0 -0 -0 -0 -0 -0 0 0 0 -0 -0 -0 -0 0 -0 -0 -0 -0 0 0 -0 0 0 0 0 0
0 0 0 0 0 0 0 0 0 0 0 0 -0 -0 0 -0 0 -0 -0 -0 -0 -0 -0 -0 -0 -0 -0 -0 -0 -0 0 0 0 0 0 0 0 0 -0 -0 0 0 0 0 0 0 0 0 0
0 0 0 0 0 0 0 0 0 0 0 0 0 0 0 0 -0 0 -0 0 0 -0 0 -0 -0 -0 -0 -0 -0 -0 0 0 0 0 -0 -0 -0 0 0 0 0 0 0 0 0 0 0 0 0
0 0 0 0 0 0 0 0 0 0 0 0 0 0 0 -0 -0 -0 -0 -0 -0 0 -0 -0 -0 -0 -0 -0 -0 -0 -0 -0 0 0 -0 -0 -0 -0 0 0 0 0 0 0 0 0 0 0 0
0 0 0 0 0 0 0 0 0 0 0 0 0 0 0 -0 -0 -0 -0 -0 -0 -0 0 0 -0 -0 -0 -0 -0 -0 -0 -0 -0 0 -0 -0 0 -0 -0 0 0 0 0 0 0 0 0 0 0
0 0 0 0 0 0 0 0 0 0 0 0 0 0 0 0 0 0 -0 -0 -0 -0 -0 -0 -0 -0 -0 -0 -0 -0 -0 -0 -0 -0 -0 0 0 0 0 0 0 0 0 0 0 0 0 0 0
0 0 0 0 0 0 0 0 0 0 0 0 0 0 0 0 0 -0 -0 0 -0 -0 -0 -0 -0 0 0 0 0 -0 -0 -0 -0 -0 -0 0 0 0 0 0 0 0 0 0 0 0 0 0 0
0 0 0 0 0 0 0 0 0 0 0 0 0 0 0 0 0 0 0 0 -0 -0 -0 -0 -0 -0 -0 0 -0 0 0 -0 -0 -0 -0 0 0 0 0 0 0 0 0 0 0 0 0 0 0
0 0 0 0 0 0 0 0 0 0 0 0 0 0 0 0 0 0 0 0 0 -0 0 -0 -0 -0 -0 -0 0 0 -0 -0 -0 -0 -0 -0 0 0 0 0 0 0 0 0 0 0 0 0 0
0 0 0 0 0 0 0 0 0 0 0 0 0 0 0 0 0 0 0 0 0 0 0 0 -0 -0 -0 0 -0 0 0 0 0 0 0 0 0 0 0 0 0 0 0 0 0 0 0 0 0
0 0 0 0 0 0 0 0 -0 0 0 0 0 0 0 0 0 0 0 0 0 0 0 0 0 0 0 0 0 0 0 0 0 0 0 0 0 0 0 0 0 0 0 0 0 0 0 0 0
0 0 0 0 0 0 0 0 0 0 -0 0 0 0 0 -0 0 0 0 0 0 0 0 0 0 0 0 0 0 0 0 0 0 0 0 0 0 0 0 0 0 0 0 0 0 0 0 0 0
0 0 0 0 0 0 0 0 0 0 0 0 0 0 0 -0 0 0 0 0 0 0 0 0 0 0 0 0 0 0 0 0 0 0 0 0 0 0 0 0 0 0 0 0 0 0 0 0 0
0 0 0 0 0 0 0 0 0 0 0 0 0 0 0 0 0 0 0 0 0 0 0 0 0 0 0 0 0 0 0 0 0 0 0 0 0 0 0 0 0 0 0 0 0 0 0 0 0
0 0 0 0 0 0 0 0 0 0 0 0 0 0 0 0 0 0 0 0 0 0 0 0 0 0 0 0 0 0 0 0 0 0 0 0 0 0 0 0 0 0 0 0 0 0 0 0 0
0 0 0 0 0 0 0 0 0 0 0 0 0 0 0 0 0 0 0 0 0 0 0 0 0 0 0 0 0 0 0 0 0 0 0 0 0 0 0 0 0 0 0 0 0 0 0 0 0
0 0 0 0 0 0 0 -0 -0 0 0 0 0 0 0 0 0 0 0 0 0 0 0 0 0 0 0 0 0 0 0 0 0 0 0 0 0 0 0 0 0 0 0 0 0 0 0 0 0
0 0 0 0 0 0 -0 -0 0 0 0 0 0 0 0 0 0 0 0 0 0 0 0 0 0 0 0 0 0 0 0 0 0 0 0 0 0 0 0 0 0 0 0 0 0 0 0 0 0
0 0 0 0 0 0 0 0 -0 -0 0 -0 0 0 0 0 0 0 0 0 0 0 0 0 0 0 0 0 0 0 0 0 0 0 0 0 0 0 0 0 0 0 0 0 0 0 0 0 0
0 0 0 0 0 0 0 0 -0 0 0 0 0 0 0 0 0 0 0 0 0 0 0 0 0 0 0 0 0 0 0 0 0 0 0 0 0 0 0 0 0 0 0 0 0 0 0 0 0
0 0 0 0 0 0 0 0 0 0 0 0 0 0 0 0 0 0 0 0 0 0 0 0 0 0 0 0 0 0 0 0 0 0 0 0 0 0 0 0 0 0 0 0 0 0 0 0 0
0 0 0 0 0 0 0 0 0 0 0 0 0 0 0 0 0 0 0 0 0 0 0 0 0 0 0 0 0 0 0 0 0 0 0 0 0 0 0 0 0 0 0 0 0 0 0 0 0
0 0 0 0 0 0 0 0 0 0 0 0 0 0 0 0 0 0 0 0 0 0 0 0 0 0 0 0 0 0 0 0 0 0 0 0 0 0 0 0 0 0 0 0 0 0 0 0 0
0 0 0 0 0 0 0 0 0 0 0 0 0 0 0 0 0 0 0 0 0 0 0 0 0 0 0 0 0 0 0 0 0 0 0 0 0 0 0 0 0 0 0 0 0 0 0 0 0
0 0 0 0 0 0 0 0 0 0 0 0 0 0 0 0 0 0 0 0 0 0 0 0 0 0 0 0 0 0 0 0 0 0 0 0 0 0 0 0 0 0 0 0 0 0 0 0 0
0 0 0 0 0 0 0 0 0 0 0 0 0 0 0 0 0 0 0 0 0 0 0 0 0 0 0 0 0 0 0 0 0 0 0 0 0 0 0 0 0 0 0 0 0 0 0 0 0
Wind_Speed_500mb
30 26 16 9 12 6 10 10 5 7 6 7 5 11 17 16 18 8 21 22 29 28 30 26 19 15 12 10 8 10 10 11 14 13 14 11 10 13 10 10 19 18 17 19 21 21 23 25 26
29 25 10 11 12 11 13 13 10 7 9 8 4 1 4 12 14 13 25 25 32 26 28 24 22 11 11 8 8 9 11 11 10 9 14 14 12 15 13 15 19 17 17 18 19 18 21 23 23
26 16 12 8 9 11 13 8 15 14 14 3 1 4 6 10 10 18 15 29 32 27 27 25 20 15 11 7 5 8 14 11 4 4 13 13 12 15 17 16 16 17 14 16 17 19 16 18 20
21 7 9 15 4 11 16 16 19 19 8 3 3 12 10 9 6 14 25 33 30 27 26 23 20 16 10 8 6 3 8 12 10 3 2 11 10 12 15 17 14 15 12 13 12 14 14 15 15
13 10 10 12 6 8 9 19 17 11 13 11 4 11 10 6 13 18 28 31 28 28 24 24 22 16 9 7 6 4 6 8 14 10 4 7 7 10 15 12 13 12 11 10 10 11 12 10 9
14 7 11 16 15 9 11 16 14 7 10 12 7 9 14 13 21 19 27 29 26 27 27 23 22 18 12 7 7 6 6 12 17 13 12 8 8 8 12 14 12 12 12 11 7 10 8 7 6
11 11 12 8 13 13 11 14 13 11 12 9 5 7 12 14 16 21 26 25 25 22 26 24 23 21 17 12 9 8 8 10 14 11 15 14 10 9 13 15 15 14 15 13 9 8 7 6 4
8 10 8 12 17 15 12 17 6 11 12 9 4 6 14 20 21 23 25 24 23 26 21 24 22 20 18 16 13 12 12 10 12 12 17 18 15 11 10 13 13 15 16 14 12 13 12 10 9
5 10 16 13 15 11 15 17 9 3 9 9 10 9 16 22 22 24 25 24 24 28 30 25 26 24 21 17 16 16 17 16 15 16 16 21 17 17 13 11 17 17 17 17 17 18 17 14 14
13 15 22 2 11 6 18 19 15 10 16 13 13 12 14 17 23 25 26 27 28 28 31 31 31 27 25 23 23 19 20 21 20 20 19 17 18 21 19 22 19 20 22 21 22 23 21 20 19
11 19 13 10 7 6 13 15 11 17 14 19 20 20 18 21 23 22 22 22 23 22 26 29 31 33 31 28 24 21 20 21 22 24 24 20 22 26 27 28 26 24 24 25 25 28 27 26 22
16 26 11 11 6 6 15 10 16 23 16 5 6 10 20 21 23 23 22 23 23 24 22 23 27 30 33 33 32 28 25 26 26 27 28 28 28 28 27 26 27 26 25 24 25 27 29 29 30
26 26 21 13 8 10 8 21 23 24 29 14 8 12 17 19 21 21 21 21 23 26 25 24 25 28 29 34 36 34 33 32 30 30 32 32 31 30 29 31 32 32 31 30 30 29 30 31 33
7 32 21 23 21 14 14 31 30 26 33 25 25 24 22 23 23 22 23 24 25 26 26 28 31 30 32 33 35 37 38 35 36 33 35 35 34 34 33 34 35 37 37 35 33 32 31 33 34
10 14 19 27 24 20 13 33 43 47 40 35 41 38 33 33 30 29 25 26 25 26 27 32 34 35 36 38 39 41 42 41 43 41 39 40 38 38 36 36 37 37 36 39 38 38 40 41 40
15 19 22 17 32 17 18 40 24 45 56 54 49 46 44 42 38 34 31 30 28 28 32 33 35 39 43 43 41 42 44 46 47 47 46 46 45 42 42 41 39 37 39 40 41 40 40 41 41
20 18 31 18 33 22 30 24 29 29 23 45 55 57 54 53 50 44 41 39 37 34 29 31 35 37 38 45 43 42 43 44 48 49 50 48 49 46 46 46 42 39 40 42 42 41 42 42 42
25 34 26 30 11 32 33 37 19 13 20 33 41 44 46 47 48 43 40 36 34 34 33 33 35 39 36 37 40 43 46 50 47 50 57 49 49 51 50 49 49 47 45 45 44 45 43 44 42
14 29 29 24 14 15 35 42 39 45 47 46 48 47 43 43 39 38 35 35 37 42 51 50 47 41 41 40 42 45 48 50 52 54 54 55 50 53 54 53 51 51 51 49 48 45 45 47 40
29 26 31 17 7 14 29 43 39 41 49 58 57 54 55 52 52 51 48 48 49 50 51 52 55 50 45 47 44 46 44 50 53 55 57 60 55 52 54 53 53 52 53 50 49 46 47 48 40
39 37 28 22 1 22 30 43 46 39 64 65 64 61 57 57 58 52 46 47 46 45 41 39 44 46 47 46 45 46 47 44 44 49 50 56 59 56 54 54 53 52 53 53 52 50 52 54 48
37 33 31 26 13 17 18 22 28 14 19 26 40 54 58 58 59 54 42 37 35 35 38 39 39 41 44 47 50 53 51 47 40 41 39 41 47 48 46 45 47 46 51 57 54 53 55 56 57
25 30 26 33 28 28 40 18 14 32 35 27 29 36 42 46 42 36 26 21 24 32 37 40 41 45 50 54 55 56 56 47 33 29 32 32 38 30 33 37 40 40 43 46 47 47 51 55 55
12 16 14 18 21 25 41 35 34 34 30 23 27 36 37 35 28 21 23 22 24 26 27 27 25 30 37 39 40 41 36 33 30 29 30 30 26 29 32 36 39 40 41 43 41 40 43 47 51
33 30 12 13 15 22 15 30 44 15 10 11 24 35 28 25 24 20 18 21 24 24 24 24 26 28 31 34 38 37 34 34 36 36 34 31 27 27 27 29 35 37 39 42 44 46 48 50 51
47 40 15 17 18 23 29 26 20 10 33 26 18 28 34 24 23 22 23 20 19 20 20 22 21 21 24 24 26 30 35 37 37 36 36 34 35 36 34 36 38 35 38 40 42 44 50 53 53
39 41 35 22 3 7 20 32 22 15 10 28 34 36 37 31 26 26 21 23 25 25 22 20 19 18 20 18 20 22 26 29 32 32 31 33 35 33 34 37 36 37 40 43 41 40 46 51 53
29 29 24 22 15 21 24 32 23 18 26 32 32 37 25 28 29 30 29 27 26 25 22 21 19 19 21 23 23 22 21 19 18 18 17 17 18 19 20 21 23 24 26 28 33 39 44 40 42
29 24 21 19 20 16 23 22 27 37 33 30 25 41 39 34 33 32 28 28 29 27 26 24 23 23 23 23 23 22 20 17 13 10 7 5 6 10 14 17 20 23 26 29 32 35 38 43 48
45 46 49 16 28 25 30 31 11 10 7 14 34 37 23 36 37 34 33 32 30 30 29 28 27 26 26 24 21 16 12 8 4 2 6 10 13 17 22 27 31 34 37 39 42 45 47 49 51
Wind_Direction_500mb
342 343 318 273 246 236 114 105 78 126 158 59 45 340 26 23 5 37 141 142 148 164 162 157 154 148 152 162 168 156 158 177 188 183 188 188 186 171 180 169 133 130 114 103 99 96 89 87 87
342 343 297 280 263 203 96 122 142 111 76 89 91 220 181 85 54 99 142 147 149 158 160 166 158 156 150 154 151 140 135 139 130 153 166 161 157 179 174 167 145 134 116 114 98 97 96 92 90
340 331 286 301 284 47 105 124 112 122 131 100 147 356 32 67 74 138 145 152 151 156 161 174 163 153 148 131 121 151 153 169 87 103 143 149 150 147 160 163 148 143 138 117 110 106 101 100 94
341 252 234 253 199 64 94 108 123 139 161 200 301 106 95 67 97 151 151 151 152 156 171 177 173 171 153 121 122 139 182 184 151 156 46 155 156 150 157 163 158 156 157 136 124 106 103 112 101
303 251 245 250 144 120 106 120 140 148 124 135 223 107 83 81 121 135 150 153 159 162 180 180 180 179 179 151 161 167 186 160 164 188 242 180 156 174 168 165 175 176 175 173 153 124 115 114 110
278 275 233 221 187 135 137 146 150 144 124 115 147 101 87 126 136 147 157 158 168 177 181 191 190 192 195 204 195 201 208 189 187 199 197 231 225 180 199 186 192 194 205 205 194 161 143 130 128
299 271 276 273 174 177 149 165 183 155 144 123 109 89 107 142 155 150 159 164 170 189 188 195 200 202 205 209 216 224 220 223 225 227 191 215 232 200 203 202 203 211 216 223 218 207 197 199 195
284 265 231 218 189 185 152 180 162 193 128 131 166 129 120 155 156 154 162 171 178 189 193 198 210 214 217 220 222 223 225 237 246 249 202 213 232 233 204 220 236 225 223 233 234 235 237 241 247
279 246 232 201 223 169 166 196 174 191 173 173 161 97 124 151 158 158 169 178 190 207 193 201 212 217 214 228 231 228 235 234 238 246 248 232 234 271 236 233 231 247 245 242 247 246 249 253 259
236 238 239 58 215 220 180 215 186 202 198 193 169 144 158 163 166 171 180 191 207 214 216 214 207 219 221 223 240 232 238 241 244 246 248 242 227 222 222 245 244 243 249 252 252 252 253 254 262
200 235 247 204 224 232 210 216 213 221 218 223 205 186 173 172 181 189 195 206 213 222 230 228 229 224 219 226 225 238 226 236 239 243 244 246 231 242 241 250 251 251 250 254 255 253 253 253 247
243 235 238 231 211 222 224 239 229 228 228 52 203 176 182 186 195 200 204 205 208 213 230 233 235 236 234 229 237 233 229 239 237 241 246 247 247 246 249 244 248 254 248 253 242 253 252 254 258
238 246 221 236 237 230 276 243 243 235 240 242 220 216 205 204 207 210 211 213 213 217 221 239 237 237 238 240 243 243 241 243 244 245 247 247 252 252 252 249 248 249 251 249 247 253 256 260 262
259 234 228 228 240 251 259 256 247 242 238 231 236 235 229 225 221 218 218 221 224 227 230 225 247 244 240 239 244 249 250 242 246 239 243 248 248 252 253 252 253 252 253 255 255 253 259 263 266
217 215 228 236 229 243 263 260 246 243 249 242 239 240 239 236 235 232 234 237 232 239 236 231 234 253 250 246 246 245 251 251 252 251 245 248 248 248 252 252 254 256 256 256 257 261 263 265 269
214 226 234 215 207 220 202 255 240 245 237 245 245 246 245 243 241 241 237 234 238 244 242 240 237 245 252 254 252 251 248 249 255 254 253 256 254 251 250 252 253 254 255 257 256 261 264 268 268
207 228 220 225 209 216 206 256 241 226 243 244 248 250 251 251 248 249 248 248 249 242 234 237 241 249 248 243 242 241 249 250 254 257 255 249 254 255 252 252 253 253 255 257 258 259 262 265 270
212 225 230 219 196 221 226 240 238 205 246 248 251 251 253 250 250 249 247 247 236 233 239 248 244 249 252 244 242 239 242 249 245 249 258 253 250 255 256 254 253 253 254 257 260 263 264 268 270
317 225 236 221 222 263 244 255 253 249 241 245 256 259 254 249 249 246 242 239 245 248 249 252 255 244 246 244 240 245 247 251 251 248 249 259 249 247 252 257 256 255 258 260 262 263 266 268 268
227 248 231 249 264 243 273 269 263 254 251 249 250 251 253 257 254 254 253 252 250 253 255 256 254 246 242 246 245 248 249 259 260 250 248 254 256 247 248 253 257 258 262 264 262 260 262 267 262
231 231 236 240 284 253 279 276 261 246 242 244 246 250 253 255 259 258 255 249 251 253 254 253 251 249 247 248 248 247 251 253 261 263 258 248 248 247 245 247 252 255 260 263 266 266 264 268 269
230 223 242 248 238 256 171 284 276 285 262 218 246 241 243 249 253 256 255 252 247 246 244 249 255 252 249 246 245 245 247 252 256 258 258 254 254 248 248 251 252 254 255 262 263 263 263 265 266
238 229 221 231 242 266 250 264 268 229 241 214 228 233 232 237 242 247 249 243 236 251 253 253 250 247 243 243 244 247 249 243 247 248 247 244 252 247 244 245 244 248 253 258 264 263 257 259 263
194 168 178 219 229 244 240 234 256 238 242 242 226 234 229 224 226 229 227 240 244 248 241 239 240 239 244 246 245 240 236 243 238 241 242 252 248 254 246 245 246 248 251 255 255 258 259 262 265
189 177 182 211 209 241 214 224 245 287 248 291 265 224 228 207 209 205 218 230 235 242 245 239 238 238 234 230 226 224 216 224 228 228 232 235 242 241 235 241 249 251 252 257 259 258 260 260 261
201 194 198 217 225 256 205 237 236 229 247 228 204 231 226 206 193 183 203 216 220 217 218 222 223 229 231 227 223 216 216 221 227 232 238 241 242 244 243 247 249 250 253 257 261 262 261 270 265
195 219 225 289 291 273 239 240 265 239 223 211 231 222 213 194 181 195 195 198 200 198 191 194 195 195 200 186 197 210 217 223 230 234 232 233 241 245 250 252 255 256 259 260 264 273 272 267 272
195 202 205 223 227 231 248 253 250 193 221 230 227 237 231 191 186 186 184 186 182 185 184 182 186 183 178 177 182 186 180 182 186 197 210 226 238 250 260 267 272 274 275 273 272 270 268 272 281
206 221 217 221 231 244 260 250 244 249 240 214 231 237 217 182 182 174 176 175 175 175 174 171 164 156 152 152 153 155 159 162 164 172 182 209 248 268 275 280 283 287 289 287 285 282 280 276 276
207 208 204 198 212 224 248 250 131 73 23 257 243 240 198 181 180 176 173 172 170 171 167 163 156 153 148 144 140 137 134 137 151 239 277 277 277 286 293 295 297 297 295 293 290 286 282 281 278
Wind_Speed_850mb
30 26 16 9 12 6 10 10 5 7 6 7 5 11 17 16 18 8 21 22 29 28 30 26 19 15 12 10 8 10 10 11 14 13 14 11 10 13 10 10 19 18 17 19 21 21 23 25 26
29 25 10 11 12 11 13 13 10 7 9 8 4 1 4 12 14 13 25 25 32 26 28 24 22 11 11 8 8 9 11 11 10 9 14 14 12 15 13 15 19 17 17 18 19 18 21 23 23
26 16 12 8 9 11 13 8 15 14 14 3 1 4 6 10 10 18 15 29 32 27 27 25 20 15 11 7 5 8 14 11 4 4 13 13 12 15 17 16 16 17 14 16 17 19 16 18 20
21 7 9 15 4 11 16 16 19 19 8 3 3 12 10 9 6 14 25 33 30 27 26 23 20 16 10 8 6 3 8 12 10 3 2 11 10 12 15 17 14 15 12 13 12 14 14 15 15
13 10 10 12 6 8 9 19 17 11 13 11 4 11 10 6 13 18 28 31 28 28 24 24 22 16 9 7 6 4 6 8 14 10 4 7 7 10 15 12 13 12 11 10 10 11 12 10 9
14 7 11 16 15 9 11 16 14 7 10 12 7 9 14 13 21 19 27 29 26 27 27 23 22 18 12 7 7 6 6 12 17 13 12 8 8 8 12 14 12 12 12 11 7 10 8 7 6
11 11 12 8 13 13 11 14 13 11 12 9 5 7 12 14 16 21 26 25 25 22 26 24 23 21 17 12 9 8 8 10 14 11 15 14 10 9 13 15 15 14 15 13 9 8 7 6 4
8 10 8 12 17 15 12 17 6 11 12 9 4 6 14 20 21 23 25 24 23 26 21 24 22 20 18 16 13 12 12 10 12 12 17 18 15 11 10 13 13 15 16 14 12 13 12 10 9
5 10 16 13 15 11 15 17 9 3 9 9 10 9 16 22 22 24 25 24 24 28 30 25 26 24 21 17 16 16 17 16 15 16 16 21 17 17 13 11 17 17 17 17 17 18 17 14 14
13 15 22 2 11 6 18 19 15 10 16 13 13 12 14 17 23 25 26 27 28 28 31 31 31 27 25 23 23 19 20 21 20 20 19 17 18 21 19 22 19 20 22 21 22 23 21 20 19
11 19 13 10 7 6 13 15 11 17 14 19 20 20 18 21 23 22 22 22 23 22 26 29 31 33 31 28 24 21 20 21 22 24 24 20 22 26 27 28 26 24 24 25 25 28 27 26 22
16 26 11 11 6 6 15 10 16 23 16 5 6 10 20 21 23 23 22 23 23 24 22 23 27 30 33 33 32 28 25 26 26 27 28 28 28 28 27 26 27 26 25 24 25 27 29 29 30
26 26 21 13 8 10 8 21 23 24 29 14 8 12 17 19 21 21 21 21 23 26 25 24 25 28 29 34 36 34 33 32 30 30 32 32 31 30 29 31 32 32 31 30 30 29 30 31 33
7 32 21 23 21 14 14 31 30 26 33 25 25 24 22 23 23 22 23 24 25 26 26 28 31 30 32 33 35 37 38 35 36 33 35 35 34 34 33 34 35 37 37 35 33 32 31 33 34
10 14 19 27 24 20 13 33 43 47 40 35 41 38 33 33 30 29 25 26 25 26 27 32 34 35 36 38 39 41 42 41 43 41 39 40 38 38 36 36 37 37 36 39 38 38 40 41 40
15 19 22 17 32 17 18 40 24 45 56 54 49 46 44 42 38 34 31 30 28 28 32 33 35 39 43 43 41 42 44 46 47 47 46 46 45 42 42 41 39 37 39 40 41 40 40 41 41
20 18 31 18 33 22 30 24 29 29 23 45 55 57 54 53 50 44 41 39 37 34 29 31 35 37 38 45 43 42 43 44 48 49 50 48 49 46 46 46 42 39 40 42 42 41 42 42 42
25 34 26 30 11 32 33 37 19 13 20 33 41 44 46 47 48 43 40 36 34 34 33 33 35 39 36 37 40 43 46 50 47 50 57 49 49 51 50 49 49 47 45 45 44 45 43 44 42
14 29 29 24 14 15 35 42 39 45 47 46 48 47 43 43 39 38 35 35 37 42 51 50 47 41 41 40 42 45 48 50 52 54 54 55 50 53 54 53 51 51 51 49 48 45 45 47 40
29 26 31 17 7 14 29 43 39 41 49 58 57 54 55 52 52 51 48 48 49 50 51 52 55 50 45 47 44 46 44 50 53 55 57 60 55 52 54 53 53 52 53 50 49 46 47 48 40
39 37 28 22 1 22 30 43 46 39 64 65 64 61 57 57 58 52 46 47 46 45 41 39 44 46 47 46 45 46 47 44 44 49 50 56 59 56 54 54 53 52 53 53 52 50 52 54 48
37 33 31 26 13 17 18 22 28 14 19 26 40 54 58 58 59 54 42 37 35 35 38 39 39 41 44 47 50 53 51 47 40 41 39 41 47 48 46 45 47 46 51 57 54 53 55 56 57
25 30 26 33 28 28 40 18 14 32 35 27 29 36 42 46 42 36 26 21 24 32 37 40 41 45 50 54 55 56 56 47 33 29 32 32 38 30 33 37 40 40 43 46 47 47 51 55 55
12 16 14 18 21 25 41 35 34 34 30 23 27 36 37 35 28 21 23 22 24 26 27 27 25 30 37 39 40 41 36 33 30 29 30 30 26 29 32 36 39 40 41 43 41 40 43 47 51
33 30 12 13 15 22 15 30 44 15 10 11 24 35 28 25 24 20 18 21 24 24 24 24 26 28 31 34 38 37 34 34 36 36 34 31 27 27 27 29 35 37 39 42 44 46 48 50 51
47 40 15 17 18 23 29 26 20 10 33 26 18 28 34 24 23 22 23 20 19 20 20 22 21 21 24 24 26 30 35 37 37 36 36 34 35 36 34 36 38 35 38 40 42 44 50 53 53
39 41 35 22 3 7 20 32 22 15 10 28 34 36 37 31 26 26 21 23 25 25 22 20 19 18 20 18 20 22 26 29 32 32 31 33 35 33 34 37 36 37 40 43 41 40 46 51 53
29 29 24 22 15 21 24 32 23 18 26 32 32 37 25 28 29 30 29 27 26 25 22 21 19 19 21 23 23 22 21 19 18 18 17 17 18 19 20 21 23 24 26 28 33 39 44 40 42
29 24 21 19 20 16 23 22 27 37 33 30 25 41 39 34 33 32 28 28 29 27 26 24 23 23 23 23 23 22 20 17 13 10 7 5 6 10 14 17 20 23 26 29 32 35 38 43 48
45 46 49 16 28 25 30 31 11 10 7 14 34 37 23 36 37 34 33 32 30 30 29 28 27 26 26 24 21 16 12 8 4 2 6 10 13 17 22 27 31 34 37 39 42 45 47 49 51
Wind_Direction_850mb
342 343 318 273 246 236 114 105 78 126 158 59 45 340 26 23 5 37 141 142 148 164 162 157 154 148 152 162 168 156 158 177 188 183 188 188 186 171 180 169 133 130 114 103 99 96 89 87 87
342 343 297 280 263 203 96 122 142 111 76 89 91 220 181 85 54 99 142 147 149 158 160 166 158 156 150 154 151 140 135 139 130 153 166 161 157 179 174 167 145 134 116 114 98 97 96 92 90
340 331 286 301 284 47 105 124 112 122 131 100 147 356 32 67 74 138 145 152 151 156 161 174 163 153 148 131 121 151 153 169 87 103 143 149 150 147 160 163 148 143 138 117 110 106 101 100 94
341 252 234 253 199 64 94 108 123 139 161 200 301 106 95 67 97 151 151 151 152 156 171 177 173 171 153 121 122 139 182 184 151 156 46 155 156 150 157 163 158 156 157 136 124 106 103 112 101
303 251 245 250 144 120 106 120 140 148 124 135 223 107 83 81 121 135 150 153 159 162 180 180 180 179 179 151 161 167 186 160 164 188 242 180 156 174 168 165 175 176 175 173 153 124 115 114 110
278 275 233 221 187 135 137 146 150 144 124 115 147 101 87 126 136 147 157 158 168 177 181 191 190 192 195 204 195 201 208 189 187 199 197 231 225 180 199 186 192 194 205 205 194 161 143 130 128
299 271 276 273 174 177 149 165 183 155 144 123 109 89 107 142 155 150 159 164 170 189 188 195 200 202 205 209 216 224 220 223 225 227 191 215 232 200 203 202 203 211 216 223 218 207 197 199 195
284 265 231 218 189 185 152 180 162 193 128 131 166 129 120 155 156 154 162 171 178 189 193 198 210 214 217 220 222 223 225 237 246 249 202 213 232 233 204 220 236 225 223 233 234 235 237 241 247
279 246 232 201 223 169 166 196 174 191 173 173 161 97 124 151 158 158 169 178 190 207 193 201 212 217 214 228 231 228 235 234 238 246 248 232 234 271 236 233 231 247 245 242 247 246 249 253 259
236 238 239 58 215 220 180 215 186 202 198 193 169 144 158 163 166 171 180 191 207 214 216 214 207 219 221 223 240 232 238 241 244 246 248 242 227 222 222 245 244 243 249 252 252 252 253 254 262
200 235 247 204 224 232 210 216 213 221 218 223 205 186 173 172 181 189 195 206 213 222 230 228 229 224 219 226 225 238 226 236 239 243 244 246 231 242 241 250 251 251 250 254 255 253 253 253 247
243 235 238 231 211 222 224 239 229 228 228 52 203 176 182 186 195 200 204 205 208 213 230 233 235 236 234 229 237 233 229 239 237 241 246 247 247 246 249 244 248 254 248 253 242 253 252 254 258
238 246 221 236 237 230 276 243 243 235 240 242 220 216 205 204 207 210 211 213 213 217 221 239 237 237 238 240 243 243 241 243 244 245 247 247 252 252 252 249 248 249 251 249 247 253 256 260 262
259 234 228 228 240 251 259 256 247 242 238 231 236 235 229 225 221 218 218 221 224 227 230 225 247 244 240 239 244 249 250 242 246 239 243 248 248 252 253 252 253 252 253 255 255 253 259 263 266
217 215 228 236 229 243 263 260 246 243 249 242 239 240 239 236 235 232 234 237 232 239 236 231 234 253 250 246 246 245 251 251 252 251 245 248 248 248 252 252 254 256 256 256 257 261 263 265 269
214 226 234 215 207 220 202 255 240 245 237 245 245 246 245 243 241 241 237 234 238 244 242 240 237 245 252 254 252 251 248 249 255 254 253 256 254 251 250 252 253 254 255 257 256 261 264 268 268
207 228 220 225 209 216 206 256 241 226 243 244 248 250 251 251 248 249 248 248 249 242 234 237 241 249 248 243 242 241 249 250 254 257 255 249 254 255 252 252 253 253 255 257 258 259 262 265 270
212 225 230 219 196 221 226 240 238 205 246 248 251 251 253 250 250 249 247 247 236 233 239 248 244 249 252 244 242 239 242 249 245 249 258 253 250 255 256 254 253 253 254 257 260 263 264 268 270
317 225 236 221 222 263 244 255 253 249 241 245 256 259 254 249 249 246 242 239 245 248 249 252 255 244 246 244 240 245 247 251 251 248 249 259 249 247 252 257 256 255 258 260 262 263 266 268 268
227 248 231 249 264 243 273 269 263 254 251 249 250 251 253 257 254 254 253 252 250 253 255 256 254 246 242 246 245 248 249 259 260 250 248 254 256 247 248 253 257 258 262 264 262 260 262 267 262
231 231 236 240 284 253 279 276 261 246 242 244 246 250 253 255 259 258 255 249 251 253 254 253 251 249 247 248 248 247 251 253 261 263 258 248 248 247 245 247 252 255 260 263 266 266 264 268 269
230 223 242 248 238 256 171 284 276 285 262 218 246 241 243 249 253 256 255 252 247 246 244 249 255 252 249 246 245 245 247 252 256 258 258 254 254 248 248 251 252 254 255 262 263 263 263 265 266
238 229 221 231 242 266 250 264 268 229 241 214 228 233 232 237 242 247 249 243 236 251 253 253 250 247 243 243 244 247 249 243 247 248 247 244 252 247 244 245 244 248 253 258 264 263 257 259 263
194 168 178 219 229 244 240 234 256 238 242 242 226 234 229 224 226 229 227 240 244 248 241 239 240 239 244 246 245 240 236 243 238 241 242 252 248 254 246 245 246 248 251 255 255 258 259 262 265
189 177 182 211 209 241 214 224 245 287 248 291 265 224 228 207 209 205 218 230 235 242 245 239 238 238 234 230 226 224 216 224 228 228 232 235 242 241 235 241 249 251 252 257 259 258 260 260 261
201 194 198 217 225 256 205 237 236 229 247 228 204 231 226 206 193 183 203 216 220 217 218 222 223 229 231 227 223 216 216 221 227 232 238 241 242 244 243 247 249 250 253 257 261 262 261 270 265
195 219 225 289 291 273 239 240 265 239 223 211 231 222 213 194 181 195 195 198 200 198 191 194 195 195 200 186 197 210 217 223 230 234 232 233 241 245 250 252 255 256 259 260 264 273 272 267 272
195 202 205 223 227 231 248 253 250 193 221 230 227 237 231 191 186 186 184 186 182 185 184 182 186 183 178 177 182 186 180 182 186 197 210 226 238 250 260 267 272 274 275 273 272 270 268 272 281
206 221 217 221 231 244 260 250 244 249 240 214 231 237 217 182 182 174 176 175 175 175 174 171 164 156 152 152 153 155 159 162 164 172 182 209 248 268 275 280 283 287 289 287 285 282 280 276 276
207 208 204 198 212 224 248 250 131 73 23 257 243 240 198 181 180 176 173 172 170 171 167 163 156 153 148 144 140 137 134 137 151 239 277 277 277 286 293 295 297 297 295 293 290 286 282 281 278